Weather History for Pittsfield, MA

Change the Weather History Date:

Saturday, January 19, 2013

  Actual Average Record
Temperature  
Mean Temperature 31 °F 20 °F  
Max Temperature 41 °F 29 °F 55 °F (1949)
Min Temperature 20 °F 11 °F -16 °F (1938)
Degree Days  
Heating Degree Days 34 45  
Month to date heating degree days 731 848  
Since 1 July heating degree days 3267 3686  
Cooling Degree Days 0 0  
Month to date cooling degree days 0 0  
Year to date cooling degree days 0 0  
Moisture  
Dew Point 17 °F    
Average Humidity 51    
Maximum Humidity 58    
Minimum Humidity 44    
Precipitation  
Precipitation 0.00 in 0.08 in 0.73 in (1926)
Month to date precipitation 0.59 1.93  
Year to date precipitation 0.59 1.93  
Sea Level Pressure  
Sea Level Pressure 30.05 in    
Wind  
Wind Speed 11 mph (SW)    
Max Wind Speed 21 mph    
Max Gust Speed 37 mph    
Visibility 10 miles    
Events      
T = Trace of Precipitation, MM = Missing Value Source: NWS Daily Summary

Daily Weather History Graph

Daily Weather History Graph

Search for Another Location

Airport:

Trip Planner

Search our weather history database for the weather conditions in past years. The results will help you decide how hot, cold, wet, or windy it might be!

Date:

Astronomy

Jan. 19, 2013 Rise Set
Actual Time 7:17 AM EST 4:50 PM EST
Civil Twilight 6:46 AM EST 5:21 PM EST
Nautical Twilight 6:12 AM EST 5:56 PM EST
Astronomical Twilight 5:38 AM EST 6:29 PM EST
Moon 11:16 AM EST (1/19) 12:47 AM EST (1/19)
Length of Visible Light 10h 34m
Length of Day
9h 33m
First Quarter, 57% of the Moon is Illuminated
Jan 19
First Quarter
Jan 26
Full
Feb 3
Last Quarter
Feb 10
New
Feb 17
First Quarter

Hourly Weather History & Observations

Time (EST) Temp. Windchill Dew Point Humidity Pressure Visibility Wind Dir Wind Speed Gust Speed Precip Events Conditions
12:54 AM 21.0 °F 13.4 °F 7.0 °F 55% 30.27 in 10.0 mi South 5.8 mph - N/A   Overcast
1:54 AM 23.0 °F 14.7 °F 7.0 °F 50% 30.26 in 10.0 mi SW 6.9 mph - N/A   Overcast
2:54 AM 24.1 °F 11.5 °F 8.1 °F 51% 30.23 in 10.0 mi SW 15.0 mph 29.9 mph N/A   Overcast
3:54 AM 25.0 °F 16.3 °F 9.0 °F 51% 30.18 in 10.0 mi SW 8.1 mph 27.6 mph N/A   Mostly Cloudy
4:54 AM 25.0 °F 11.7 °F 10.0 °F 53% 30.18 in 10.0 mi SW 17.3 mph 26.5 mph N/A   Overcast
5:54 AM 26.1 °F 15.6 °F 12.0 °F 55% 30.16 in 10.0 mi SSW 11.5 mph 26.5 mph N/A   Partly Cloudy
6:54 AM 27.0 °F 18.0 °F 14.0 °F 58% 30.16 in 10.0 mi SW 9.2 mph 20.7 mph N/A   Overcast
7:54 AM 28.0 °F 17.0 °F 15.1 °F 58% 30.15 in 10.0 mi SW 13.8 mph 24.2 mph N/A   Overcast
8:54 AM 28.9 °F 17.3 °F 16.0 °F 58% 30.15 in 10.0 mi SW 16.1 mph 25.3 mph N/A   Overcast
9:54 AM 32.0 °F 21.6 °F 16.0 °F 52% 30.15 in 10.0 mi SW 15.0 mph 25.3 mph N/A   Mostly Cloudy
10:54 AM 33.1 °F 23.9 °F 17.1 °F 52% 30.10 in 10.0 mi SW 12.7 mph 23.0 mph N/A   Clear
11:54 AM 34.0 °F 25.0 °F 19.0 °F 54% 30.06 in 10.0 mi SW 12.7 mph 18.4 mph N/A   Clear
12:54 PM 35.1 °F 25.5 °F 19.0 °F 52% 30.02 in 10.0 mi SW 15.0 mph 20.7 mph N/A   Clear
1:54 PM 37.9 °F 31.5 °F 19.9 °F 48% 29.99 in 10.0 mi SSW 9.2 mph 17.3 mph N/A   Clear
2:54 PM 37.9 °F 32.7 °F 21.0 °F 51% 29.99 in 10.0 mi SW 6.9 mph - N/A   Clear
3:54 PM 39.0 °F 34.0 °F 21.0 °F 49% 29.97 in 10.0 mi Variable 6.9 mph - N/A   Clear
4:54 PM 39.0 °F 34.0 °F 19.9 °F 46% 29.96 in 10.0 mi SW 6.9 mph - N/A   Clear
5:54 PM 39.0 °F 36.8 °F 19.9 °F 46% 29.95 in 10.0 mi West 3.5 mph - N/A   Clear
6:54 PM 39.0 °F 35.7 °F 19.9 °F 46% 29.94 in 10.0 mi Variable 4.6 mph 18.4 mph N/A   Clear
7:54 PM 39.9 °F 32.1 °F 21.0 °F 47% 29.92 in 10.0 mi SW 13.8 mph 23.0 mph N/A   Clear
8:54 PM 39.9 °F 33.9 °F 21.9 °F 49% 29.90 in 10.0 mi SW 9.2 mph 23.0 mph N/A   Clear
9:54 PM 39.9 °F 32.5 °F 21.9 °F 49% 29.86 in 10.0 mi SW 12.7 mph 24.2 mph N/A   Clear
10:54 PM 39.9 °F 32.5 °F 23.0 °F 51% 29.83 in 10.0 mi SW 12.7 mph - N/A   Partly Cloudy
11:54 PM 41.0 °F 32.8 °F 24.1 °F 51% 29.80 in 10.0 mi SW 16.1 mph 26.5 mph N/A   Overcast